Location: Cheching
(60.0667°N, 164.2167°W)
Time: 20:00:54
(UTC+00:00)

DX 1 - Pass Details

Date: 30 January 2021
Orbit: 618 x 631 km, 98.5° (Epoch: 26 February)

Event Time Altitude Azimuth Distance (km) Brightness Sun altitude
Exits shadow 05:13:49 26° 102° (ESE) 1,233 ? -15.6°
Drops below altitude 10° 05:17:06 10° 151° (SSE) 1,986 ? -16.0°
Sets 05:19:34 0° 164° (SSE) 2,887 ? -16.3°
